TimeCST,TemperatureF,Dew PointF,Humidity,Sea Level PressureIn,VisibilityMPH,Wind Direction,Wind SpeedMPH,Gust SpeedMPH,PrecipitationIn,Events,Conditions,WindDirDegrees,DateUTC
12:15 AM,55.4,53.6,94,29.84,5.0,SSE,17.3,21.9,0.03,Rain-Thunderstorm,Thunderstorms and Rain,150,2013-03-09 06:15:00
12:35 AM,57.2,53.6,88,29.84,10.0,SSE,6.9,-,0.03,,Light Drizzle,160,2013-03-09 06:35:00
12:55 AM,57.2,55.4,94,29.84,10.0,South,9.2,-,0.04,Rain,Light Rain,170,2013-03-09 06:55:00
1:15 AM,57.2,55.4,94,29.82,10.0,SSE,11.5,16.1,0.01,Rain,Light Rain,160,2013-03-09 07:15:00
1:35 AM,59.0,55.4,88,29.81,10.0,South,13.8,18.4,0.01,,Overcast,170,2013-03-09 07:35:00
1:55 AM,59.0,55.4,88,29.81,10.0,SSE,12.7,-,0.01,Rain-Thunderstorm,Light Thunderstorms and Rain,160,2013-03-09 07:55:00
2:15 AM,59.0,55.4,88,29.79,10.0,SSE,16.1,20.7,0.02,Rain-Thunderstorm,Rain,160,2013-03-09 08:15:00
2:35 AM,59.0,55.4,88,29.79,5.0,South,19.6,25.3,0.07,Rain-Thunderstorm,Heavy Thunderstorms and Rain,170,2013-03-09 08:35:00
2:55 AM,59.0,55.4,88,29.77,5.0,SSE,16.1,21.9,0.14,Rain-Thunderstorm,Rain,160,2013-03-09 08:55:00
3:15 AM,59.0,55.4,88,29.76,7.0,SSE,19.6,24.2,0.05,Rain-Thunderstorm,Rain,160,2013-03-09 09:15:00
3:35 AM,59.0,55.4,88,29.75,5.0,SSE,17.3,-,0.12,Rain,Heavy Rain,160,2013-03-09 09:35:00
3:55 AM,57.2,53.6,88,29.76,5.0,SSW,12.7,-,0.24,Rain,Heavy Rain,200,2013-03-09 09:55:00
4:15 AM,53.6,51.8,94,29.78,7.0,SW,16.1,-,0.12,Rain,Rain,220,2013-03-09 10:15:00
4:35 AM,53.6,51.8,94,29.76,10.0,SSW,9.2,-,0.18,Rain,Light Rain,210,2013-03-09 10:35:00
4:55 AM,53.6,51.8,94,29.75,7.0,South,6.9,-,0.23,Rain,Rain,190,2013-03-09 10:55:00
5:15 AM,53.6,51.8,94,29.75,10.0,SSE,9.2,-,0.01,Rain,Rain,160,2013-03-09 11:15:00
5:35 AM,53.6,51.8,94,29.75,10.0,SSE,10.4,-,0.02,Rain,Rain,160,2013-03-09 11:35:00
5:55 AM,53.6,51.8,94,29.74,10.0,SSE,5.8,-,0.02,Rain,Light Rain,160,2013-03-09 11:55:00
6:15 AM,53.6,51.8,94,29.72,10.0,SE,6.9,-,0.01,Rain,Rain,130,2013-03-09 12:15:00
6:35 AM,53.6,51.8,94,29.73,10.0,SE,4.6,-,0.01,Rain,Rain,130,2013-03-09 12:35:00
6:55 AM,53.6,51.8,94,29.73,10.0,Calm,Calm,-,0.03,Rain,Light Rain,0,2013-03-09 12:55:00
7:15 AM,53.6,51.8,94,29.73,10.0,South,4.6,-,0.01,Rain,Rain,170,2013-03-09 13:15:00
7:35 AM,55.4,51.8,88,29.72,10.0,SSW,8.1,-,0.01,Rain-Thunderstorm,Light Thunderstorms and Rain,210,2013-03-09 13:35:00
7:55 AM,55.4,51.8,88,29.72,10.0,South,8.1,-,0.01,Rain,Light Rain,190,2013-03-09 13:55:00
8:15 AM,55.4,51.8,88,29.72,7.0,SSW,10.4,-,0.03,Rain,Rain,200,2013-03-09 14:15:00
8:35 AM,55.4,53.6,94,29.72,5.0,SW,5.8,-,0.08,Rain,Heavy Rain,230,2013-03-09 14:35:00
8:55 AM,55.4,53.6,94,29.72,5.0,WSW,4.6,-,0.14,Rain-Thunderstorm,Rain,250,2013-03-09 14:55:00
9:15 AM,55.4,51.8,88,29.71,2.0,SSW,11.5,-,0.22,Rain,Rain,200,2013-03-09 15:15:00
9:35 AM,55.4,53.6,94,29.70,4.0,SSW,12.7,18.4,0.36,Rain,Heavy Rain,200,2013-03-09 15:35:00
9:55 AM,57.2,53.6,88,29.69,10.0,SW,11.5,16.1,0.38,,Overcast,220,2013-03-09 15:55:00
10:15 AM,55.4,53.6,94,29.69,7.0,SW,6.9,-,0.03,Rain,Light Rain,230,2013-03-09 16:15:00
10:35 AM,57.2,53.6,88,29.69,7.0,SW,8.1,-,0.05,Rain,Rain,220,2013-03-09 16:35:00
10:55 AM,60.8,57.2,88,29.68,10.0,SSW,12.7,-,0.05,,Overcast,210,2013-03-09 16:55:00
11:15 AM,62.6,55.4,77,29.67,10.0,SSW,15.0,-,N/A,,Mostly Cloudy,200,2013-03-09 17:15:00
11:35 AM,62.6,51.8,68,29.67,10.0,SW,15.0,20.7,N/A,,Scattered Clouds,220,2013-03-09 17:35:00
11:55 AM,64.4,46.4,52,29.67,10.0,SW,18.4,26.5,N/A,,Clear,220,2013-03-09 17:55:00
12:15 PM,66.2,41.0,40,29.67,10.0,SW,20.7,28.8,N/A,,Scattered Clouds,220,2013-03-09 18:15:00
12:35 PM,68.0,37.4,33,29.65,10.0,SSW,26.5,31.1,N/A,,Clear,210,2013-03-09 18:35:00
12:55 PM,68.0,35.6,30,29.64,10.0,SW,21.9,29.9,N/A,,Scattered Clouds,220,2013-03-09 18:55:00
1:15 PM,69.8,35.6,28,29.63,10.0,SW,25.3,31.1,N/A,,Scattered Clouds,220,2013-03-09 19:15:00
1:35 PM,69.8,33.8,27,29.61,10.0,SW,24.2,32.2,N/A,,Scattered Clouds,220,2013-03-09 19:35:00
1:55 PM,69.8,32.0,25,29.60,10.0,SW,24.2,33.4,N/A,,Scattered Clouds,220,2013-03-09 19:55:00
2:15 PM,68.0,35.6,30,29.60,10.0,SW,20.7,26.5,N/A,,Clear,230,2013-03-09 20:15:00
2:35 PM,68.0,35.6,30,29.60,10.0,SW,24.2,33.4,N/A,,Clear,230,2013-03-09 20:35:00
2:55 PM,68.0,35.6,30,29.60,10.0,SW,25.3,36.8,N/A,,Clear,230,2013-03-09 20:55:00
3:15 PM,68.0,33.8,28,29.60,10.0,SW,24.2,35.7,N/A,,Clear,220,2013-03-09 21:15:00
3:35 PM,66.2,33.8,30,29.59,10.0,SW,27.6,32.2,N/A,,Clear,230,2013-03-09 21:35:00
3:55 PM,66.2,35.6,32,29.60,10.0,SSW,24.2,29.9,N/A,,Clear,210,2013-03-09 21:55:00
4:15 PM,64.4,32.0,30,29.59,10.0,SSW,21.9,33.4,N/A,,Clear,210,2013-03-09 22:15:00
4:35 PM,64.4,32.0,30,29.60,10.0,SSW,20.7,31.1,N/A,,Clear,210,2013-03-09 22:35:00
4:55 PM,64.4,32.0,30,29.60,10.0,SW,24.2,33.4,N/A,,Clear,220,2013-03-09 22:55:00
5:15 PM,64.4,32.0,30,29.59,10.0,SSW,20.7,29.9,N/A,,Clear,210,2013-03-09 23:15:00
5:35 PM,62.6,32.0,32,29.60,10.0,SSW,19.6,25.3,N/A,,Clear,200,2013-03-09 23:35:00
5:55 PM,62.6,32.0,32,29.59,10.0,SSW,19.6,25.3,N/A,,Clear,200,2013-03-09 23:55:00
6:15 PM,60.8,32.0,34,29.59,10.0,SSW,18.4,-,N/A,,Clear,210,2013-03-10 00:15:00
6:35 PM,60.8,30.2,31,29.61,10.0,SSW,18.4,27.6,N/A,,Clear,210,2013-03-10 00:35:00
6:55 PM,59.0,26.6,29,29.62,10.0,SW,18.4,28.8,N/A,,Clear,220,2013-03-10 00:55:00
7:15 PM,57.2,26.6,31,29.62,10.0,SW,18.4,27.6,N/A,,Clear,220,2013-03-10 01:15:00
7:35 PM,55.4,24.8,31,29.62,10.0,SW,19.6,23.0,N/A,,Clear,230,2013-03-10 01:35:00
7:55 PM,55.4,24.8,31,29.63,10.0,SW,18.4,23.0,N/A,,Clear,230,2013-03-10 01:55:00
8:15 PM,53.6,26.6,35,29.67,10.0,West,23.0,29.9,N/A,,Clear,280,2013-03-10 02:15:00
8:35 PM,46.4,35.6,66,29.69,10.0,NW,20.7,28.8,N/A,,Clear,310,2013-03-10 02:35:00
8:55 PM,42.8,35.6,76,29.70,10.0,NW,17.3,23.0,N/A,,Clear,310,2013-03-10 02:55:00
9:15 PM,42.8,33.8,70,29.70,10.0,NW,18.4,27.6,N/A,,Clear,320,2013-03-10 03:15:00
9:35 PM,41.0,33.8,76,29.72,10.0,NW,16.1,23.0,N/A,,Clear,310,2013-03-10 03:35:00
9:55 PM,41.0,33.8,76,29.73,10.0,WNW,13.8,19.6,N/A,,Clear,300,2013-03-10 03:55:00
10:15 PM,39.2,33.8,81,29.73,10.0,NW,10.4,-,N/A,,Clear,310,2013-03-10 04:15:00
10:35 PM,37.4,33.8,87,29.75,10.0,WNW,8.1,-,N/A,,Scattered Clouds,300,2013-03-10 04:35:00
10:55 PM,39.2,33.8,81,29.74,10.0,WNW,9.2,-,N/A,,Mostly Cloudy,290,2013-03-10 04:55:00
11:15 PM,39.2,33.8,81,29.75,10.0,WNW,10.4,-,N/A,,Overcast,300,2013-03-10 05:15:00
11:35 PM,39.2,33.8,81,29.76,10.0,WNW,12.7,-,N/A,,Overcast,300,2013-03-10 05:35:00
11:55 PM,39.2,32.0,75,29.76,10.0,WNW,10.4,-,N/A,,Overcast,300,2013-03-10 05:55:00